Wind_Speed
12 15 18 22 24 24 26 25 25 24 22 20 19 21 23 23 24 26 27 28 28 29 31 32 32 32 33 31 30 32 31 30 29 30 28 25 23 21 24 22 19 22 24 26 26 30 32 31 38 40 29 35 33 20
14 13 17 19 20 19 18 18 18 19 19 17 19 20 20 21 21 22 23 25 26 27 30 32 33 33 31 31 30 30 30 29 25 23 24 24 24 26 29 25 19 20 19 21 24 32 33 17 35 38 32 47 44 30
12 13 13 13 13 13 13 12 12 14 16 16 17 17 18 19 20 22 24 26 29 29 31 31 31 31 31 30 29 27 26 27 26 27 28 30 32 33 30 27 26 15 17 18 23 21 24 28 29 27 31 30 33 35
13 11 10 10 10 11 11 12 13 13 12 13 14 15 17 20 23 25 27 28 28 29 29 27 30 30 29 27 26 24 24 24 24 24 25 26 28 32 31 28 22 17 18 18 13 18 21 27 22 30 36 29 26 37
8 7 7 7 8 9 9 10 10 12 13 14 16 18 20 22 23 25 26 26 26 26 21 21 22 23 21 17 12 12 15 19 20 21 21 22 25 30 34 30 25 26 29 29 25 22 16 19 27 27 25 29 35 41
5 6 6 5 5 5 6 8 10 12 13 14 15 17 20 21 20 21 20 19 19 17 15 16 20 21 16 14 16 12 12 11 12 13 15 16 21 29 32 33 29 39 38 38 37 31 26 28 27 25 26 28 29 31
6 5 3 3 4 6 7 8 9 10 12 12 10 10 10 9 7 3 5 9 10 9 7 4 4 5 5 11 14 15 13 11 12 13 13 17 19 25 26 22 12 29 33 38 45 42 43 40 40 36 33 33 33 31
4 2 2 3 4 5 7 8 7 7 6 7 17 21 21 22 22 21 19 17 15 13 11 10 9 7 5 2 10 12 12 15 11 10 9 13 14 18 7 11 16 22 26 20 16 20 25 29 36 41 41 39 40 41
2 2 2 3 5 6 5 7 7 18 25 22 18 16 14 14 13 11 10 8 7 7 7 6 5 6 7 4 2 5 7 9 9 8 12 14 12 8 8 7 8 6 9 10 9 9 13 14 17 22 27 33 38 42
4 0 3 4 3 8 13 17 25 22 18 15 11 8 5 5 5 5 5 6 7 7 7 10 9 7 4 3 3 3 6 9 9 8 10 7 5 6 8 4 12 9 12 17 15 10 15 12 13 12 13 17 22 29
4 3 3 7 13 14 17 21 20 17 13 9 4 3 3 3 6 9 10 10 11 9 10 12 9 8 6 5 3 7 7 9 8 5 8 7 3 6 11 4 7 6 10 14 13 12 14 13 11 10 9 8 8 9
5 3 10 15 15 15 17 17 15 12 8 6 6 6 9 9 10 11 10 8 6 11 10 13 13 8 11 8 6 9 9 5 3 4 5 4 6 9 9 7 9 11 13 15 12 13 10 9 8 8 8 5 10 14
6 10 15 15 14 14 14 14 13 10 8 8 8 8 10 7 8 10 10 6 1 5 7 9 10 11 10 14 10 9 8 7 4 2 2 4 7 10 10 12 13 14 16 16 14 13 8 6 6 6 3 4 8 9
12 18 16 13 12 11 9 8 8 7 6 5 8 9 10 12 12 12 11 9 7 7 6 10 12 13 12 15 6 7 8 7 7 5 7 7 10 15 15 17 15 16 17 16 11 9 5 5 6 4 4 3 2 5
19 19 16 12 10 8 8 9 8 7 6 5 6 8 14 17 19 19 17 15 14 12 12 12 12 14 13 10 7 8 9 7 7 9 11 13 15 17 17 17 19 17 15 13 9 8 5 5 7 4 3 3 2 3
17 17 14 11 9 8 9 10 10 9 8 7 7 8 13 18 21 23 21 18 19 16 16 17 14 15 14 13 11 11 13 12 10 11 12 14 17 19 20 20 21 18 13 12 9 7 6 4 4 5 5 4 5 6
14 13 13 13 13 12 12 13 14 13 8 4 7 12 17 18 20 23 22 20 19 20 20 16 13 14 16 16 13 13 16 17 15 15 15 17 19 18 19 19 22 18 13 11 9 8 6 5 6 6 6 6 7 5
15 15 14 15 16 17 17 17 17 16 10 11 11 13 16 16 17 19 20 20 18 18 18 17 18 16 14 16 12 14 18 20 19 19 19 20 20 19 19 20 21 15 12 11 9 7 8 8 7 7 7 7 7 8
24 24 22 21 21 22 23 23 21 19 17 17 16 16 18 17 18 18 18 20 19 19 20 19 19 16 14 15 16 19 22 22 22 21 21 22 23 20 22 20 19 15 12 12 10 10 11 9 8 9 8 9 10 10
26 26 26 25 26 26 28 28 25 25 23 23 22 22 20 19 17 17 18 19 20 20 20 19 19 18 18 19 18 17 23 27 28 27 28 25 24 22 21 19 18 16 13 12 13 13 14 15 15 13 12 13 14 14
25 24 24 25 27 28 30 30 27 26 26 26 25 26 24 23 23 22 20 21 21 21 20 20 20 20 20 19 20 20 20 21 22 24 23 23 22 22 20 20 18 16 13 11 12 14 17 18 19 20 21 20 20 20
24 24 26 28 30 32 34 31 29 27 28 26 25 25 24 24 25 27 26 26 26 25 25 24 24 24 25 24 23 23 22 21 21 22 23 23 22 22 22 21 18 16 12 11 10 10 13 16 19 20 21 21 20 19
28 28 29 28 29 32 32 27 26 23 21 19 20 21 20 20 21 24 25 28 27 27 27 26 25 25 24 23 22 22 23 23 22 22 21 21 20 20 19 18 16 15 13 11 10 9 9 10 11 12 12 11 11 11
36 35 34 34 34 34 31 28 25 24 23 23 22 23 23 21 19 19 19 21 21 23 24 23 22 21 21 21 21 21 21 22 23 22 20 19 19 19 18 17 15 14 13 11 11 10 10 9 9 10 11 12 13 13
35 39 40 39 39 40 37 33 30 29 29 27 25 24 24 25 25 26 24 22 23 23 23 23 24 23 22 21 21 21 21 21 22 22 22 21 20 20 18 17 16 15 16 15 13 13 13 13 13 13 13 13 14 14
32 37 41 43 39 37 38 39 37 35 34 34 35 34 36 36 36 37 36 34 35 34 33 33 31 29 29 28 26 24 21 21 21 21 21 22 22 22 21 19 18 17 17 18 18 17 16 16 15 14 13 14 14 14
28 35 38 38 42 40 37 39 41 41 41 42 43 42 42 42 42 44 44 43 42 41 42 43 42 41 39 36 34 32 30 27 25 22 21 22 23 24 24 22 21 21 20 20 20 20 19 19 18 18 19 19 19 19
33 37 34 32 36 39 41 42 42 43 43 41 43 43 42 42 42 42 41 39 37 35 35 36 37 38 39 41 42 42 41 38 34 31 28 24 24 26 26 26 24 25 25 24 23 23 23 23 22 23 23 23 23 24
26 29 30 30 31 35 38 39 43 43 44 45 45 45 43 40 40 39 38 37 36 34 33 33 33 33 32 33 35 37 40 41 42 40 38 35 31 27 26 28 27 29 30 31 29 28 28 27 26 26 27 27 28 29
27 27 27 28 29 31 33 38 41 42 43 43 43 42 44 43 40 38 37 34 33 31 29 29 31 33 34 34 34 34 33 33 33 36 38 39 38 34 31 29 29 29 32 33 31 30 30 29 29 30 30 31 31 31
28 32 33 33 32 31 29 30 32 36 39 41 42 43 45 45 44 42 41 38 35 32 31 32 34 34 36 36 35 35 35 33 33 32 32 34 37 37 35 32 30 28 30 32 33 31 29 30 31 31 31 31 33 35
16 19 26 34 37 38 37 37 37 37 38 41 42 43 46 48 48 47 50 50 51 51 49 48 48 46 42 39 38 36 35 34 32 32 31 31 33 35 37 36 34 32 30 31 30 30 30 30 31 32 33 35 36 37
22 19 16 15 19 29 37 40 43 44 46 48 49 50 52 54 55 54 55 55 56 57 59 58 55 51 47 41 40 39 36 34 33 33 32 31 31 32 34 37 37 36 35 33 32 31 31 30 31 33 35 36 36 38
Wind_Direction
238 215 205 210 202 206 215 218 219 222 223 226 228 232 236 244 251 254 253 255 257 260 261 261 265 266 268 265 260 261 264 269 269 270 274 274 269 254 259 267 277 277 270 273 271 261 266 254 248 246 256 264 258 258
203 195 199 204 200 197 197 200 203 212 220 226 235 241 245 249 251 255 256 261 265 266 265 266 267 268 266 263 263 266 269 265 259 259 258 250 246 245 251 257 260 276 275 263 260 256 254 272 250 248 238 251 254 247
169 164 164 163 168 176 186 195 205 217 228 230 239 246 249 251 255 263 266 268 269 268 268 269 268 269 269 270 269 268 266 266 265 261 258 253 245 241 249 253 254 276 289 263 258 261 256 263 269 246 236 256 239 239
136 141 151 165 178 191 202 211 217 224 233 242 249 255 260 264 268 271 272 273 272 272 273 275 276 273 272 269 268 267 260 258 258 258 260 257 254 248 247 251 251 266 281 289 283 268 253 242 263 264 253 240 246 248
146 161 178 190 200 207 213 221 229 237 244 255 265 271 274 275 273 273 274 275 274 274 271 266 265 279 269 260 249 261 267 268 262 256 260 257 256 254 246 251 252 273 278 282 285 289 285 270 268 269 272 267 259 255
150 155 160 169 184 203 223 241 256 266 272 275 273 274 274 273 270 267 270 270 270 272 269 263 269 266 258 236 238 249 260 249 263 268 263 266 259 258 258 259 258 266 280 282 283 284 281 287 285 275 271 265 265 262
142 147 162 207 243 253 255 258 262 264 268 266 266 268 264 257 246 193 128 115 99 93 77 53 360 347 274 234 241 247 248 251 267 277 274 266 263 266 270 284 277 263 260 264 268 275 276 277 275 270 263 261 260 259
141 168 207 220 232 242 251 260 250 227 222 163 129 118 111 108 107 105 102 97 91 83 72 60 47 38 25 266 231 243 268 283 280 279 279 280 280 284 294 306 269 262 268 274 282 280 281 275 268 267 264 260 260 256
145 164 219 255 268 264 225 180 161 134 127 123 118 113 112 113 111 109 101 86 67 51 37 26 2 18 13 18 300 276 273 283 289 305 294 299 278 283 316 313 273 291 295 283 283 333 328 311 274 260 256 254 256 256
169 251 313 264 236 160 153 142 137 134 130 126 118 114 113 119 98 84 82 70 66 63 58 53 38 39 30 342 304 287 266 284 310 307 309 333 34 49 18 5 360 315 318 327 325 320 327 328 327 289 268 263 263 261
219 314 204 165 151 152 148 147 146 148 150 146 140 156 148 129 113 108 99 86 87 66 19 10 5 16 25 11 311 295 297 291 297 304 318 22 31 301 330 310 310 337 306 304 311 321 316 315 320 333 344 341 319 286
217 235 169 158 148 146 156 158 162 169 180 187 174 169 148 131 128 117 118 113 49 51 51 38 32 355 352 324 267 272 296 315 262 289 320 357 349 330 327 318 314 319 318 317 315 326 339 332 332 343 354 40 77 81
250 182 167 162 154 153 161 170 177 187 188 190 187 178 175 170 168 162 158 165 281 31 42 29 1 347 335 332 323 260 275 284 265 339 357 346 326 333 342 324 309 302 311 315 310 316 326 334 335 342 4 111 97 105
176 168 167 166 169 173 184 186 186 193 189 198 204 209 208 199 202 209 222 237 259 266 317 336 336 341 336 339 304 258 260 273 257 276 311 303 307 316 318 327 321 315 310 310 307 307 298 316 326 307 274 231 190 166
167 172 174 178 184 191 207 210 209 208 214 229 239 236 227 227 234 235 234 242 249 261 279 300 305 316 316 317 317 278 267 271 267 277 283 295 306 305 312 325 330 319 307 314 296 284 295 284 299 290 277 252 217 170
175 181 190 201 214 223 224 222 223 229 236 257 267 228 225 238 250 252 255 258 259 265 274 293 318 319 316 303 287 286 271 272 279 276 285 295 304 305 304 310 328 327 308 303 295 274 260 252 272 265 238 224 253 198
192 204 217 229 235 240 233 233 245 252 264 288 244 247 256 256 253 257 262 262 262 261 269 287 293 307 310 300 299 271 266 259 267 273 281 294 300 308 310 313 322 326 307 295 281 268 228 250 269 249 240 235 249 244
224 233 240 245 246 244 240 246 250 251 259 277 279 276 277 273 254 251 258 260 263 267 274 283 281 290 293 290 285 262 272 260 263 271 284 291 298 303 308 312 320 319 298 289 270 241 235 262 260 248 244 247 253 260
241 244 248 249 246 244 244 248 257 266 275 283 286 283 281 286 267 255 258 262 266 273 277 280 284 285 279 277 272 256 257 260 266 279 287 291 295 297 305 313 321 314 301 282 266 249 252 258 247 248 248 256 261 264
246 248 247 242 239 240 244 249 254 264 272 277 281 279 278 279 279 271 267 267 270 272 273 276 280 281 281 283 287 277 265 264 268 275 284 288 289 292 299 310 317 314 303 281 264 253 256 260 265 267 264 264 265 268
244 243 241 241 242 245 249 255 260 268 273 276 278 277 276 273 273 274 272 271 270 272 274 277 280 281 281 281 281 281 278 276 277 277 278 281 283 287 294 303 305 309 297 280 265 256 254 255 257 261 268 271 270 268
244 243 241 240 241 244 250 256 262 265 269 275 277 277 275 270 264 264 266 268 272 275 277 279 281 282 282 282 278 277 280 281 278 274 274 278 281 287 293 295 293 300 288 275 271 266 261 260 259 260 263 264 265 263
238 239 237 240 243 246 251 251 253 255 259 265 272 275 278 276 271 266 264 267 271 275 279 281 284 285 285 284 280 276 274 276 277 279 277 275 278 281 284 284 283 287 277 275 281 280 272 262 254 246 245 246 243 238
233 235 235 237 241 248 249 249 249 251 253 259 269 273 272 272 272 273 272 274 273 274 276 279 282 284 284 283 281 278 277 275 273 273 275 273 272 273 275 274 279 277 268 270 270 270 268 263 250 235 232 234 234 232
237 234 236 239 243 248 250 251 251 255 258 261 263 262 263 265 268 271 274 274 274 273 274 277 279 279 279 281 282 282 282 282 281 276 271 267 267 269 271 271 275 274 263 266 272 263 255 249 239 230 227 228 230 229
247 245 238 235 238 246 251 250 254 255 256 256 259 262 262 266 271 273 272 273 274 275 275 275 274 274 273 272 272 275 279 283 285 283 275 267 264 264 267 267 269 269 265 263 266 261 251 240 234 235 237 240 238 236
256 251 247 238 236 235 242 252 252 250 252 255 257 260 264 268 271 271 272 273 272 271 271 271 271 271 271 271 271 270 270 272 276 281 282 271 263 261 263 265 266 264 263 264 260 253 249 241 238 242 243 242 244 246
241 247 251 246 241 240 242 245 250 252 251 250 253 259 263 263 265 268 270 272 272 272 271 271 271 271 270 269 267 265 265 266 266 268 271 276 272 262 259 259 261 262 261 260 260 256 255 248 243 245 245 247 251 255
257 257 260 258 250 245 245 246 248 248 247 247 251 255 259 257 259 262 266 269 270 271 271 272 273 274 273 272 271 268 265 262 261 261 263 265 265 270 268 258 256 258 256 259 258 260 257 251 246 247 249 250 254 258
256 257 259 259 260 257 252 249 249 251 252 253 253 254 256 256 258 258 260 262 265 268 271 275 276 274 273 273 271 270 269 267 265 261 258 258 259 259 260 264 260 257 257 259 256 259 259 254 251 251 253 255 260 266
265 256 251 252 253 253 254 256 256 256 256 256 256 257 257 257 255 253 255 260 257 260 273 283 288 286 278 272 269 268 267 266 265 264 261 256 254 253 252 253 257 257 260 261 259 256 261 263 261 261 261 263 264 267
311 288 271 259 255 255 254 254 253 254 256 257 256 257 258 259 258 256 257 259 258 260 266 272 279 280 281 271 267 263 262 263 264 263 262 261 257 253 250 250 251 252 255 259 262 262 259 262 264 261 262 265 265 267
349 345 332 307 281 265 261 258 257 256 255 256 257 259 261 263 265 265 265 264 265 266 268 271 272 272 274 266 262 260 259 259 259 259 260 260 259 256 253 250 251 254 256 257 259 260 261 262 262 262 265 268 271 272
Height
5394 5396 5399 5404 5406 5409 5416 5420 5424 5429 5434 5438 5441 5443 5447 5450 5452 5454 5455 5455 5456 5455 5457 5457 5456 5457 5458 5459 5459 5459 5460 5459 5457 5456 5456 5458 5458 5459 5459 5458 5457 5455 5453 5451 5449 5448 5447 5456 5457 5459 5462 5460 5465 5464
5395 5397 5399 5403 5403 5408 5413 5417 5422 5426 5430 5433 5437 5438 5442 5444 5443 5444 5447 5448 5449 5448 5448 5448 5448 5448 5449 5449 5450 5449 5449 5448 5448 5448 5450 5450 5451 5449 5450 5451 5452 5450 5446 5445 5444 5442 5442 5441 5445 5448 5449 5451 5455 5460
5393 5396 5398 5401 5404 5409 5413 5417 5419 5424 5427 5429 5431 5433 5434 5435 5436 5437 5439 5439 5440 5441 5439 5439 5439 5439 5438 5438 5438 5439 5438 5438 5439 5438 5439 5440 5440 5442 5442 5443 5442 5443 5440 5438 5436 5437 5436 5434 5436 5439 5440 5441 5443 5447
5394 5397 5400 5403 5406 5410 5413 5416 5418 5420 5422 5423 5425 5426 5427 5428 5429 5430 5431 5431 5431 5432 5431 5430 5429 5429 5429 5428 5429 5429 5430 5431 5431 5431 5430 5431 5432 5433 5434 5434 5435 5437 5435 5432 5431 5430 5429 5430 5430 5428 5430 5433 5433 5437
5397 5399 5401 5403 5406 5408 5410 5412 5414 5416 5418 5419 5420 5420 5420 5421 5422 5423 5423 5424 5423 5425 5424 5423 5421 5421 5421 5422 5423 5424 5424 5424 5424 5424 5424 5425 5425 5425 5426 5426 5430 5429 5427 5425 5425 5425 5423 5423 5422 5422 5423 5423 5424 5426
5398 5399 5401 5403 5405 5407 5408 5410 5411 5412 5412 5413 5414 5415 5415 5416 5416 5416 5417 5418 5417 5417 5417 5417 5416 5415 5415 5417 5419 5420 5420 5420 5419 5418 5419 5419 5418 5417 5417 5418 5423 5419 5419 5417 5415 5415 5415 5415 5415 5415 5415 5415 5414 5414
5399 5400 5402 5403 5404 5405 5406 5407 5408 5409 5410 5411 5411 5412 5412 5412 5412 5414 5415 5416 5415 5415 5415 5415 5413 5412 5412 5414 5416 5417 5417 5416 5416 5415 5415 5413 5413 5410 5409 5409 5416 5411 5407 5405 5406 5405 5405 5404 5403 5404 5404 5405 5405 5406
5400 5401 5402 5403 5404 5405 5406 5406 5407 5408 5409 5410 5412 5414 5414 5415 5416 5417 5417 5417 5417 5417 5417 5416 5415 5414 5413 5413 5413 5414 5414 5413 5412 5410 5410 5408 5408 5406 5404 5404 5402 5402 5400 5399 5397 5395 5392 5389 5389 5389 5389 5390 5391 5392
5401 5402 5403 5403 5403 5403 5404 5405 5407 5408 5411 5413 5415 5417 5418 5419 5419 5419 5419 5419 5419 5420 5418 5417 5416 5415 5414 5414 5413 5413 5412 5411 5409 5408 5407 5405 5404 5402 5401 5399 5398 5397 5395 5393 5391 5389 5385 5382 5378 5376 5375 5376 5376 5378
5402 5403 5402 5402 5402 5403 5405 5407 5409 5412 5415 5416 5418 5419 5419 5420 5420 5420 5421 5420 5419 5419 5418 5417 5416 5415 5414 5413 5412 5412 5410 5409 5408 5407 5406 5404 5403 5401 5400 5398 5396 5395 5393 5390 5387 5385 5382 5379 5375 5372 5369 5367 5365 5363
5402 5402 5402 5402 5403 5405 5407 5410 5413 5415 5417 5418 5419 5420 5420 5420 5420 5420 5421 5421 5421 5421 5419 5418 5417 5415 5415 5413 5412 5410 5409 5408 5406 5406 5405 5403 5402 5400 5398 5396 5395 5393 5391 5388 5386 5383 5380 5376 5372 5369 5366 5363 5360 5356
5401 5401 5402 5404 5406 5408 5410 5412 5414 5416 5417 5419 5419 5420 5420 5421 5421 5421 5421 5421 5420 5419 5418 5417 5416 5415 5413 5411 5410 5409 5408 5407 5406 5405 5404 5403 5402 5400 5397 5395 5393 5391 5389 5386 5383 5380 5377 5373 5371 5368 5366 5364 5362 5359
5400 5401 5403 5405 5407 5410 5412 5413 5415 5416 5417 5418 5419 5419 5420 5421 5421 5421 5420 5420 5420 5419 5418 5416 5414 5412 5411 5409 5407 5407 5406 5406 5405 5404 5403 5403 5401 5398 5396 5394 5391 5388 5386 5383 5380 5378 5375 5373 5371 5370 5368 5367 5365 5364
5399 5402 5405 5407 5409 5410 5412 5413 5414 5416 5417 5418 5418 5419 5419 5419 5419 5420 5420 5419 5418 5418 5417 5415 5413 5410 5408 5406 5405 5404 5405 5404 5403 5403 5402 5400 5398 5396 5394 5391 5388 5385 5382 5380 5378 5376 5374 5373 5371 5370 5370 5369 5369 5368
5400 5403 5405 5407 5409 5410 5411 5412 5414 5415 5416 5416 5416 5416 5417 5417 5416 5416 5416 5416 5416 5415 5414 5413 5411 5409 5406 5405 5404 5403 5403 5402 5402 5401 5399 5397 5396 5393 5391 5388 5384 5381 5378 5376 5374 5373 5372 5371 5370 5370 5369 5369 5369 5369
5402 5404 5406 5407 5408 5409 5410 5410 5411 5412 5413 5414 5413 5413 5413 5412 5412 5411 5412 5413 5412 5412 5411 5409 5407 5405 5404 5402 5402 5401 5400 5399 5399 5397 5396 5394 5392 5389 5387 5384 5380 5377 5375 5373 5371 5370 5370 5369 5369 5369 5369 5369 5369 5369
5403 5404 5405 5406 5406 5407 5407 5408 5408 5408 5409 5410 5409 5408 5407 5407 5406 5406 5406 5406 5406 5406 5406 5405 5404 5402 5400 5398 5398 5397 5396 5395 5394 5393 5392 5390 5388 5385 5382 5379 5376 5373 5371 5369 5368 5368 5368 5368 5368 5368 5368 5368 5368 5369
5401 5402 5402 5402 5402 5402 5403 5403 5403 5404 5405 5405 5404 5403 5402 5402 5401 5400 5399 5400 5401 5401 5401 5400 5398 5398 5396 5394 5393 5392 5391 5389 5389 5388 5387 5385 5383 5381 5378 5375 5372 5369 5367 5366 5365 5365 5365 5365 5366 5366 5366 5366 5367 5367
5395 5395 5396 5396 5397 5397 5397 5397 5397 5397 5399 5398 5398 5397 5396 5395 5394 5395 5395 5395 5395 5395 5394 5393 5392 5392 5390 5389 5387 5386 5385 5384 5384 5383 5381 5380 5378 5376 5373 5371 5368 5365 5363 5362 5362 5362 5362 5362 5363 5363 5364 5364 5364 5364
5386 5387 5388 5389 5389 5389 5389 5390 5391 5391 5392 5392 5391 5390 5390 5389 5388 5388 5388 5388 5389 5388 5388 5387 5386 5385 5384 5382 5381 5380 5378 5377 5377 5376 5375 5374 5373 5371 5369 5366 5363 5361 5359 5357 5357 5358 5358 5358 5359 5360 5360 5361 5361 5361
5378 5379 5380 5380 5381 5381 5381 5381 5383 5384 5384 5384 5383 5381 5382 5381 5381 5381 5382 5381 5381 5381 5381 5381 5380 5379 5378 5376 5375 5373 5372 5371 5370 5369 5368 5367 5366 5365 5363 5361 5359 5357 5355 5353 5353 5353 5353 5353 5354 5354 5355 5355 5355 5356
5370 5370 5371 5371 5372 5371 5372 5374 5375 5376 5375 5375 5374 5373 5374 5373 5373 5373 5374 5373 5374 5374 5374 5373 5372 5371 5370 5368 5367 5366 5365 5364 5363 5362 5361 5360 5359 5358 5357 5356 5354 5352 5351 5350 5348 5348 5347 5347 5348 5348 5349 5349 5349 5350
5360 5361 5361 5362 5362 5362 5364 5367 5367 5367 5367 5368 5367 5366 5366 5365 5365 5365 5365 5365 5365 5365 5364 5364 5363 5362 5361 5360 5359 5358 5357 5356 5355 5354 5353 5353 5352 5351 5350 5349 5349 5348 5346 5346 5345 5344 5344 5343 5343 5343 5344 5344 5345 5345
5347 5349 5350 5351 5352 5353 5355 5357 5358 5359 5360 5360 5359 5359 5359 5359 5358 5358 5358 5357 5357 5356 5356 5355 5355 5354 5354 5353 5352 5351 5350 5348 5348 5347 5346 5345 5345 5345 5344 5344 5343 5343 5342 5342 5341 5341 5341 5340 5340 5340 5340 5341 5342 5342
5333 5337 5339 5341 5342 5343 5344 5347 5349 5350 5350 5351 5351 5351 5351 5350 5351 5350 5350 5350 5349 5348 5348 5347 5347 5347 5346 5345 5344 5343 5342 5341 5340 5340 5339 5339 5338 5338 5338 5338 5338 5337 5337 5337 5337 5336 5336 5336 5336 5337 5337 5337 5338 5338
5320 5321 5324 5327 5329 5332 5332 5335 5337 5339 5339 5339 5339 5339 5339 5340 5339 5339 5340 5340 5339 5339 5338 5338 5338 5337 5337 5337 5337 5336 5335 5334 5333 5332 5332 5331 5331 5332 5332 5332 5332 5332 5331 5331 5331 5331 5331 5331 5332 5332 5333 5333 5334 5334
5307 5306 5308 5312 5315 5319 5320 5321 5322 5324 5325 5325 5325 5327 5327 5327 5327 5326 5326 5327 5327 5326 5325 5325 5325 5325 5326 5326 5326 5326 5326 5326 5326 5325 5324 5324 5324 5324 5325 5325 5325 5325 5324 5324 5324 5325 5325 5325 5326 5327 5327 5328 5328 5328
5294 5294 5296 5300 5301 5304 5305 5307 5308 5309 5311 5313 5314 5313 5313 5313 5313 5312 5312 5312 5312 5312 5312 5311 5311 5311 5311 5311 5312 5312 5313 5314 5315 5316 5316 5316 5315 5315 5316 5316 5317 5317 5317 5317 5317 5317 5318 5318 5319 5320 5321 5321 5321 5321
5285 5286 5287 5287 5289 5290 5292 5293 5293 5296 5298 5299 5300 5299 5299 5300 5299 5300 5301 5300 5300 5300 5299 5299 5298 5298 5298 5298 5297 5297 5298 5299 5301 5302 5304 5305 5306 5306 5306 5306 5307 5307 5308 5308 5309 5309 5309 5310 5310 5312 5313 5313 5313 5313
5274 5274 5275 5275 5276 5277 5278 5279 5280 5282 5282 5284 5284 5285 5284 5286 5288 5288 5288 5288 5288 5287 5287 5287 5287 5286 5286 5286 5286 5286 5285 5285 5286 5287 5289 5290 5292 5294 5295 5296 5296 5297 5297 5298 5299 5300 5300 5301 5301 5302 5303 5303 5304 5303
5261 5261 5262 5262 5263 5264 5265 5266 5267 5268 5268 5268 5270 5270 5270 5272 5273 5275 5274 5275 5275 5273 5273 5273 5274 5274 5274 5274 5274 5274 5273 5275 5274 5275 5275 5276 5278 5280 5282 5284 5285 5286 5287 5287 5289 5290 5290 5291 5292 5293 5293 5294 5293 5293
5254 5252 5251 5251 5250 5251 5252 5252 5253 5254 5254 5254 5255 5255 5255 5254 5255 5257 5258 5258 5258 5258 5258 5259 5260 5260 5260 5260 5260 5261 5261 5262 5262 5263 5264 5264 5265 5267 5269 5271 5273 5275 5276 5277 5278 5279 5280 5281 5282 5282 5282 5282 5282 5281
5251 5248 5245 5243 5240 5239 5239 5240 5238 5238 5238 5237 5238 5238 5237 5236 5237 5239 5240 5240 5241 5241 5242 5243 5243 5243 5243 5244 5245 5246 5248 5249 5250 5251 5252 5252 5254 5255 5256 5259 5261 5263 5265 5266 5267 5268 5269 5269 5270 5270 5270 5270 5270 5269